Terug naar catalogus

IRNSS 1I

ActiefNavigatieGEO
NORAD 43286·PAYLOAD·🇮🇳 India

Gelanceerd Apr 11, 2018 vanaf Satish Dhawan Space Centre

Loading…

TLE

VersSource: CelesTrak SupGP

Epoch: Sep 14, 2026, 23:59 UTC

1 43286C 18035A   26257.99979167  .00000155  00000+0  00000+0 0  2575
2 43286  28.9624  72.7963 0020872 178.1353 158.0799  1.00272317    10

Volg IRNSS 1I in realtime met AllMySat

Download on the App Store